Saint Anthony, Indiana
Current Conditions -  °F | °C
As of 3:15 AM on Thursday 23 Oct 2014 (Local Time) from KHNB Reporting Station
Clear Clear  
Wind Chill: 39°   Ceiling: Unl
Heat Index: 39°   Visibility: 3mi
Dew Point: 36°   Wind: 0mph
Humidity: 87%   Direction: NA
Pressure: 30.25"   Gusts: NA
Location:  38.31°N, 86.83°W
Report Text: KHNB 230815Z AUTO 00000KT 3SM CLR 04/02 A3025 RMK AO1
Loading
Personal Weather Stations






























Interactive Weather Map
Tropical Storm Tracking
New forecast layout! Learn more

10-Day Weather Forecast

Advertisements
Track Severe Weather on mobile